Time,TemperatureF,DewpointF,PressureIn,WindDirection,WindDirectionDegrees,WindSpeedMPH,WindSpeedGustMPH,Humidity,HourlyPrecipIn,Conditions,Clouds,dailyrainin,SoftwareType,DateUTC
2013-07-18 00:01:00,61.7,47.7,-100.00,North,-999,-999.0,-999.0,60,-99.99,,---,-99.99,VWS V14.01,2013-07-18 07:01:00,
2013-07-18 00:06:00,61.7,47.7,-100.00,North,-999,-999.0,-999.0,60,-99.99,,---,-99.99,VWS V14.01,2013-07-18 07:06:00,
2013-07-18 00:11:00,61.7,47.7,-100.00,North,-999,-999.0,-999.0,60,-99.99,,---,-99.99,VWS V14.01,2013-07-18 07:11:00,
2013-07-18 00:16:00,61.7,47.7,-100.00,North,-999,-999.0,-999.0,60,-99.99,,---,-99.99,VWS V14.01,2013-07-18 07:16:00,
2013-07-18 00:21:00,61.7,48.1,-100.00,North,-999,-999.0,-999.0,61,-99.99,,---,-99.99,VWS V14.01,2013-07-18 07:21:00,
2013-07-18 00:26:00,61.5,48.0,-100.00,North,-999,-999.0,-999.0,61,-99.99,,---,-99.99,VWS V14.01,2013-07-18 07:26:00,
2013-07-18 00:31:00,61.3,47.8,-100.00,North,-999,-999.0,-999.0,61,-99.99,,---,-99.99,VWS V14.01,2013-07-18 07:31:00,
2013-07-18 00:36:00,61.3,47.8,-100.00,North,-999,-999.0,-999.0,61,-99.99,,---,-99.99,VWS V14.01,2013-07-18 07:36:00,
2013-07-18 00:41:00,61.2,47.6,-100.00,North,-999,-999.0,-999.0,61,-99.99,,---,-99.99,VWS V14.01,2013-07-18 07:41:00,
2013-07-18 00:46:00,61.2,47.6,-100.00,North,-999,-999.0,-999.0,61,-99.99,,---,-99.99,VWS V14.01,2013-07-18 07:46:00,
2013-07-18 00:51:00,61.0,47.9,-100.00,North,-999,-999.0,-999.0,62,-99.99,,---,-99.99,VWS V14.01,2013-07-18 07:51:00,
2013-07-18 00:56:00,61.0,47.9,-100.00,North,-999,-999.0,-999.0,62,-99.99,,---,-99.99,VWS V14.01,2013-07-18 07:56:00,
2013-07-18 01:01:00,61.0,47.9,-100.00,North,-999,-999.0,-999.0,62,-99.99,,---,-99.99,VWS V14.01,2013-07-18 08:01:00,
2013-07-18 01:11:00,61.0,47.9,-100.00,North,-999,-999.0,-999.0,62,-99.99,,---,-99.99,VWS V14.01,2013-07-18 08:11:00,
2013-07-18 01:16:00,60.8,48.1,-100.00,North,-999,-999.0,-999.0,63,-99.99,,---,-99.99,VWS V14.01,2013-07-18 08:16:00,
2013-07-18 01:21:00,60.8,48.1,-100.00,North,-999,-999.0,-999.0,63,-99.99,,---,-99.99,VWS V14.01,2013-07-18 08:21:00,
2013-07-18 01:26:00,60.8,48.1,-100.00,North,-999,-999.0,-999.0,63,-99.99,,---,-99.99,VWS V14.01,2013-07-18 08:26:00,
2013-07-18 01:31:00,60.8,48.1,-100.00,North,-999,-999.0,-999.0,63,-99.99,,---,-99.99,VWS V14.01,2013-07-18 08:31:00,
2013-07-18 01:36:00,60.6,48.0,-100.00,North,-999,-999.0,-999.0,63,-99.99,,---,-99.99,VWS V14.01,2013-07-18 08:36:00,
2013-07-18 01:41:00,60.6,48.4,-100.00,North,-999,-999.0,-999.0,64,-99.99,,---,-99.99,VWS V14.01,2013-07-18 08:41:00,
2013-07-18 01:46:00,60.4,48.2,-100.00,North,-999,-999.0,-999.0,64,-99.99,,---,-99.99,VWS V14.01,2013-07-18 08:46:00,
2013-07-18 01:51:00,60.4,48.2,-100.00,North,-999,-999.0,-999.0,64,-99.99,,---,-99.99,VWS V14.01,2013-07-18 08:51:00,
2013-07-18 01:56:00,60.3,48.0,-100.00,North,-999,-999.0,-999.0,64,-99.99,,---,-99.99,VWS V14.01,2013-07-18 08:56:00,
2013-07-18 02:01:00,60.1,47.9,-100.00,North,-999,-999.0,-999.0,64,-99.99,,---,-99.99,VWS V14.01,2013-07-18 09:01:00,
2013-07-18 02:08:00,59.9,47.7,-100.00,North,-999,-999.0,-999.0,64,-99.99,,---,-99.99,VWS V14.01,2013-07-18 09:08:00,
2013-07-18 02:14:00,59.9,48.1,-100.00,North,-999,-999.0,-999.0,65,-99.99,,---,-99.99,VWS V14.01,2013-07-18 09:14:00,
2013-07-18 02:19:00,59.9,48.1,-100.00,North,-999,-999.0,-999.0,65,-99.99,,---,-99.99,VWS V14.01,2013-07-18 09:19:00,
2013-07-18 02:24:00,59.9,48.1,-100.00,North,-999,-999.0,-999.0,65,-99.99,,---,-99.99,VWS V14.01,2013-07-18 09:24:00,
2013-07-18 02:29:00,59.9,48.1,-100.00,North,-999,-999.0,-999.0,65,-99.99,,---,-99.99,VWS V14.01,2013-07-18 09:29:00,
2013-07-18 02:34:00,59.9,48.1,-100.00,North,-999,-999.0,-999.0,65,-99.99,,---,-99.99,VWS V14.01,2013-07-18 09:34:00,
2013-07-18 02:40:00,59.7,48.0,-100.00,North,-999,-999.0,-999.0,65,-99.99,,---,-99.99,VWS V14.01,2013-07-18 09:40:00,
2013-07-18 02:45:00,59.7,48.0,-100.00,North,-999,-999.0,-999.0,65,-99.99,,---,-99.99,VWS V14.01,2013-07-18 09:45:00,
2013-07-18 02:50:00,59.5,48.2,-100.00,North,-999,-999.0,-999.0,66,-99.99,,---,-99.99,VWS V14.01,2013-07-18 09:50:00,
2013-07-18 02:55:00,59.5,48.2,-100.00,North,-999,-999.0,-999.0,66,-99.99,,---,-99.99,VWS V14.01,2013-07-18 09:55:00,
2013-07-18 03:00:00,59.4,48.0,-100.00,North,-999,-999.0,-999.0,66,-99.99,,---,-99.99,VWS V14.01,2013-07-18 10:00:00,
2013-07-18 03:05:00,59.4,48.0,-100.00,North,-999,-999.0,-999.0,66,-99.99,,---,-99.99,VWS V14.01,2013-07-18 10:05:00,
2013-07-18 03:10:00,59.4,48.0,-100.00,North,-999,-999.0,-999.0,66,-99.99,,---,-99.99,VWS V14.01,2013-07-18 10:10:00,
2013-07-18 03:15:00,59.4,48.0,-100.00,North,-999,-999.0,-999.0,66,-99.99,,---,-99.99,VWS V14.01,2013-07-18 10:15:00,
2013-07-18 03:20:00,59.4,48.4,-100.00,North,-999,-999.0,-999.0,67,-99.99,,---,-99.99,VWS V14.01,2013-07-18 10:20:00,
2013-07-18 03:25:00,59.4,48.4,-100.00,North,-999,-999.0,-999.0,67,-99.99,,---,-99.99,VWS V14.01,2013-07-18 10:25:00,
2013-07-18 03:30:00,59.4,48.4,-100.00,North,-999,-999.0,-999.0,67,-99.99,,---,-99.99,VWS V14.01,2013-07-18 10:30:00,
2013-07-18 03:35:00,59.5,48.6,-100.00,North,-999,-999.0,-999.0,67,-99.99,,---,-99.99,VWS V14.01,2013-07-18 10:35:00,
2013-07-18 03:40:00,59.5,48.6,-100.00,North,-999,-999.0,-999.0,67,-99.99,,---,-99.99,VWS V14.01,2013-07-18 10:40:00,
2013-07-18 03:45:00,59.5,48.6,-100.00,North,-999,-999.0,-999.0,67,-99.99,,---,-99.99,VWS V14.01,2013-07-18 10:45:00,
2013-07-18 03:50:00,59.4,48.4,-100.00,North,-999,-999.0,-999.0,67,-99.99,,---,-99.99,VWS V14.01,2013-07-18 10:50:00,
2013-07-18 03:55:00,59.4,48.4,-100.00,North,-999,-999.0,-999.0,67,-99.99,,---,-99.99,VWS V14.01,2013-07-18 10:55:00,
2013-07-18 04:00:00,59.4,48.4,-100.00,North,-999,-999.0,-999.0,67,-99.99,,---,-99.99,VWS V14.01,2013-07-18 11:00:00,
2013-07-18 04:05:00,59.5,49.0,-100.00,North,-999,-999.0,-999.0,68,-99.99,,---,-99.99,VWS V14.01,2013-07-18 11:05:00,
2013-07-18 04:10:00,59.4,48.8,-100.00,North,-999,-999.0,-999.0,68,-99.99,,---,-99.99,VWS V14.01,2013-07-18 11:10:00,
2013-07-18 04:15:00,59.4,48.8,-100.00,North,-999,-999.0,-999.0,68,-99.99,,---,-99.99,VWS V14.01,2013-07-18 11:15:00,
2013-07-18 04:20:00,59.4,48.8,-100.00,North,-999,-999.0,-999.0,68,-99.99,,---,-99.99,VWS V14.01,2013-07-18 11:20:00,
2013-07-18 04:25:00,59.5,49.0,-100.00,North,-999,-999.0,-999.0,68,-99.99,,---,-99.99,VWS V14.01,2013-07-18 11:25:00,
2013-07-18 04:30:00,59.5,49.0,-100.00,North,-999,-999.0,-999.0,68,-99.99,,---,-99.99,VWS V14.01,2013-07-18 11:30:00,
2013-07-18 04:35:00,59.5,49.0,-100.00,North,-999,-999.0,-999.0,68,-99.99,,---,-99.99,VWS V14.01,2013-07-18 11:35:00,
2013-07-18 04:40:00,59.5,49.0,-100.00,North,-999,-999.0,-999.0,68,-99.99,,---,-99.99,VWS V14.01,2013-07-18 11:40:00,
2013-07-18 04:45:00,59.4,48.8,-100.00,North,-999,-999.0,-999.0,68,-99.99,,---,-99.99,VWS V14.01,2013-07-18 11:45:00,
2013-07-18 04:50:00,59.4,48.8,-100.00,North,-999,-999.0,-999.0,68,-99.99,,---,-99.99,VWS V14.01,2013-07-18 11:50:00,
2013-07-18 04:55:00,59.4,48.8,-100.00,North,-999,-999.0,-999.0,68,-99.99,,---,-99.99,VWS V14.01,2013-07-18 11:55:00,
2013-07-18 05:00:00,59.5,49.0,-100.00,North,-999,-999.0,-999.0,68,-99.99,,---,-99.99,VWS V14.01,2013-07-18 12:00:00,
2013-07-18 05:05:00,59.5,49.0,-100.00,North,-999,-999.0,-999.0,68,-99.99,,---,-99.99,VWS V14.01,2013-07-18 12:05:00,
2013-07-18 05:10:00,59.4,48.8,-100.00,North,-999,-999.0,-999.0,68,-99.99,,---,-99.99,VWS V14.01,2013-07-18 12:10:00,
2013-07-18 05:15:00,59.4,49.2,-100.00,North,-999,-999.0,-999.0,69,-99.99,,---,-99.99,VWS V14.01,2013-07-18 12:15:00,
2013-07-18 05:20:00,59.4,49.2,-100.00,North,-999,-999.0,-999.0,69,-99.99,,---,-99.99,VWS V14.01,2013-07-18 12:20:00,
2013-07-18 05:25:00,59.5,49.4,-100.00,North,-999,-999.0,-999.0,69,-99.99,,---,-99.99,VWS V14.01,2013-07-18 12:25:00,
2013-07-18 05:30:00,59.5,49.4,-100.00,North,-999,-999.0,-999.0,69,-99.99,,---,-99.99,VWS V14.01,2013-07-18 12:30:00,
2013-07-18 05:35:00,59.4,49.2,-100.00,North,-999,-999.0,-999.0,69,-99.99,,---,-99.99,VWS V14.01,2013-07-18 12:35:00,
2013-07-18 05:40:00,59.4,49.2,-100.00,North,-999,-999.0,-999.0,69,-99.99,,---,-99.99,VWS V14.01,2013-07-18 12:40:00,
2013-07-18 05:45:00,59.4,49.2,-100.00,North,-999,-999.0,-999.0,69,-99.99,,---,-99.99,VWS V14.01,2013-07-18 12:45:00,
2013-07-18 05:50:00,59.2,49.0,-100.00,North,-999,-999.0,-999.0,69,-99.99,,---,-99.99,VWS V14.01,2013-07-18 12:50:00,
2013-07-18 05:55:00,59.2,49.0,-100.00,North,-999,-999.0,-999.0,69,-99.99,,---,-99.99,VWS V14.01,2013-07-18 12:55:00,
2013-07-18 06:00:00,59.2,49.0,-100.00,North,-999,-999.0,-999.0,69,-99.99,,---,-99.99,VWS V14.01,2013-07-18 13:00:00,
2013-07-18 06:05:00,59.0,48.9,-100.00,North,-999,-999.0,-999.0,69,-99.99,,---,-99.99,VWS V14.01,2013-07-18 13:05:00,
2013-07-18 06:10:00,59.0,48.9,-100.00,North,-999,-999.0,-999.0,69,-99.99,,---,-99.99,VWS V14.01,2013-07-18 13:10:00,
2013-07-18 06:15:00,59.2,49.0,-100.00,North,-999,-999.0,-999.0,69,-99.99,,---,-99.99,VWS V14.01,2013-07-18 13:15:00,
2013-07-18 06:20:00,59.2,49.0,-100.00,North,-999,-999.0,-999.0,69,-99.99,,---,-99.99,VWS V14.01,2013-07-18 13:20:00,
2013-07-18 06:25:00,59.2,49.0,-100.00,North,-999,-999.0,-999.0,69,-99.99,,---,-99.99,VWS V14.01,2013-07-18 13:25:00,
2013-07-18 06:30:00,59.2,49.0,-100.00,North,-999,-999.0,-999.0,69,-99.99,,---,-99.99,VWS V14.01,2013-07-18 13:30:00,
2013-07-18 06:35:00,59.2,49.0,-100.00,North,-999,-999.0,-999.0,69,-99.99,,---,-99.99,VWS V14.01,2013-07-18 13:35:00,
2013-07-18 06:40:00,59.2,49.0,-100.00,North,-999,-999.0,-999.0,69,-99.99,,---,-99.99,VWS V14.01,2013-07-18 13:40:00,
2013-07-18 06:45:00,59.2,49.0,-100.00,North,-999,-999.0,-999.0,69,-99.99,,---,-99.99,VWS V14.01,2013-07-18 13:45:00,
2013-07-18 06:50:00,59.2,49.0,-100.00,North,-999,-999.0,-999.0,69,-99.99,,---,-99.99,VWS V14.01,2013-07-18 13:50:00,
2013-07-18 06:55:00,59.2,49.0,-100.00,North,-999,-999.0,-999.0,69,-99.99,,---,-99.99,VWS V14.01,2013-07-18 13:55:00,
2013-07-18 07:01:00,59.4,49.2,-100.00,North,-999,-999.0,-999.0,69,-99.99,,---,-99.99,VWS V14.01,2013-07-18 14:01:00,
2013-07-18 07:06:00,59.4,49.2,-100.00,North,-999,-999.0,-999.0,69,-99.99,,---,-99.99,VWS V14.01,2013-07-18 14:06:00,
2013-07-18 07:11:00,59.5,49.4,-100.00,North,-999,-999.0,-999.0,69,-99.99,,---,-99.99,VWS V14.01,2013-07-18 14:11:00,
2013-07-18 07:16:00,59.5,49.4,-100.00,North,-999,-999.0,-999.0,69,-99.99,,---,-99.99,VWS V14.01,2013-07-18 14:16:00,
2013-07-18 07:21:00,59.7,49.9,-100.00,North,-999,-999.0,-999.0,70,-99.99,,---,-99.99,VWS V14.01,2013-07-18 14:21:00,
2013-07-18 07:26:00,59.7,49.5,-100.00,North,-999,-999.0,-999.0,69,-99.99,,---,-99.99,VWS V14.01,2013-07-18 14:26:00,
2013-07-18 07:31:00,59.7,49.5,-100.00,North,-999,-999.0,-999.0,69,-99.99,,---,-99.99,VWS V14.01,2013-07-18 14:31:00,
2013-07-18 07:36:00,59.7,49.5,-100.00,North,-999,-999.0,-999.0,69,-99.99,,---,-99.99,VWS V14.01,2013-07-18 14:36:00,
2013-07-18 07:41:00,59.7,49.5,-100.00,North,-999,-999.0,-999.0,69,-99.99,,---,-99.99,VWS V14.01,2013-07-18 14:41:00,
2013-07-18 07:46:00,59.9,50.1,-100.00,North,-999,-999.0,-999.0,70,-99.99,,---,-99.99,VWS V14.01,2013-07-18 14:46:00,
2013-07-18 07:51:00,60.1,50.3,-100.00,North,-999,-999.0,-999.0,70,-99.99,,---,-99.99,VWS V14.01,2013-07-18 14:51:00,
2013-07-18 07:56:00,60.1,49.9,-100.00,North,-999,-999.0,-999.0,69,-99.99,,---,-99.99,VWS V14.01,2013-07-18 14:56:00,
2013-07-18 08:01:00,60.1,49.9,-100.00,North,-999,-999.0,-999.0,69,-99.99,,---,-99.99,VWS V14.01,2013-07-18 15:01:00,
2013-07-18 08:06:00,60.3,50.5,-100.00,North,-999,-999.0,-999.0,70,-99.99,,---,-99.99,VWS V14.01,2013-07-18 15:06:00,
2013-07-18 08:11:00,60.6,50.8,-100.00,North,-999,-999.0,-999.0,70,-99.99,,---,-99.99,VWS V14.01,2013-07-18 15:11:00,
2013-07-18 08:16:00,60.6,50.4,-100.00,North,-999,-999.0,-999.0,69,-99.99,,---,-99.99,VWS V14.01,2013-07-18 15:16:00,
2013-07-18 08:21:00,61.5,51.3,-100.00,North,-999,-999.0,-999.0,69,-99.99,,---,-99.99,VWS V14.01,2013-07-18 15:21:00,
2013-07-18 08:26:00,62.4,52.1,-100.00,North,-999,-999.0,-999.0,69,-99.99,,---,-99.99,VWS V14.01,2013-07-18 15:26:00,
2013-07-18 08:31:00,63.1,52.4,-100.00,North,-999,-999.0,-999.0,68,-99.99,,---,-99.99,VWS V14.01,2013-07-18 15:31:00,
2013-07-18 08:36:00,63.9,53.1,-100.00,North,-999,-999.0,-999.0,68,-99.99,,---,-99.99,VWS V14.01,2013-07-18 15:36:00,
2013-07-18 08:41:00,64.0,52.9,-100.00,North,-999,-999.0,-999.0,67,-99.99,,---,-99.99,VWS V14.01,2013-07-18 15:41:00,
2013-07-18 08:46:00,64.6,53.4,-100.00,North,-999,-999.0,-999.0,67,-99.99,,---,-99.99,VWS V14.01,2013-07-18 15:46:00,
2013-07-18 08:51:00,65.3,54.1,-100.00,North,-999,-999.0,-999.0,67,-99.99,,---,-99.99,VWS V14.01,2013-07-18 15:51:00,
2013-07-18 08:56:00,65.8,54.6,-100.00,North,-999,-999.0,-999.0,67,-99.99,,---,-99.99,VWS V14.01,2013-07-18 15:56:00,
2013-07-18 09:01:00,66.4,54.7,-100.00,North,-999,-999.0,-999.0,66,-99.99,,---,-99.99,VWS V14.01,2013-07-18 16:01:00,
2013-07-18 09:13:00,67.6,55.5,-100.00,North,-999,-999.0,-999.0,65,-99.99,,---,-99.99,VWS V14.01,2013-07-18 16:13:00,
2013-07-18 09:18:00,68.2,55.5,-100.00,North,-999,-999.0,-999.0,64,-99.99,,---,-99.99,VWS V14.01,2013-07-18 16:18:00,
2013-07-18 09:23:00,68.7,56.1,-100.00,North,-999,-999.0,-999.0,64,-99.99,,---,-99.99,VWS V14.01,2013-07-18 16:23:00,
2013-07-18 09:28:00,68.7,55.6,-100.00,North,-999,-999.0,-999.0,63,-99.99,,---,-99.99,VWS V14.01,2013-07-18 16:28:00,
2013-07-18 09:33:00,68.7,55.6,-100.00,North,-999,-999.0,-999.0,63,-99.99,,---,-99.99,VWS V14.01,2013-07-18 16:33:00,
2013-07-18 09:38:00,69.4,56.3,-100.00,North,-999,-999.0,-999.0,63,-99.99,,---,-99.99,VWS V14.01,2013-07-18 16:38:00,
2013-07-18 09:43:00,70.3,56.7,-100.00,North,-999,-999.0,-999.0,62,-99.99,,---,-99.99,VWS V14.01,2013-07-18 16:43:00,
2013-07-18 09:48:00,70.5,56.9,-100.00,North,-999,-999.0,-999.0,62,-99.99,,---,-99.99,VWS V14.01,2013-07-18 16:48:00,
2013-07-18 09:53:00,71.1,57.4,-100.00,North,-999,-999.0,-999.0,62,-99.99,,---,-99.99,VWS V14.01,2013-07-18 16:53:00,
2013-07-18 09:58:00,71.6,57.0,-100.00,North,-999,-999.0,-999.0,60,-99.99,,---,-99.99,VWS V14.01,2013-07-18 16:58:00,
2013-07-18 10:03:00,71.6,57.0,-100.00,North,-999,-999.0,-999.0,60,-99.99,,---,-99.99,VWS V14.01,2013-07-18 17:03:00,
2013-07-18 10:08:00,72.1,57.5,-100.00,North,-999,-999.0,-999.0,60,-99.99,,---,-99.99,VWS V14.01,2013-07-18 17:08:00,
2013-07-18 10:13:00,72.9,57.7,-100.00,North,-999,-999.0,-999.0,59,-99.99,,---,-99.99,VWS V14.01,2013-07-18 17:13:00,
2013-07-18 10:18:00,73.4,57.7,-100.00,North,-999,-999.0,-999.0,58,-99.99,,---,-99.99,VWS V14.01,2013-07-18 17:18:00,
2013-07-18 10:23:00,73.9,58.2,-100.00,North,-999,-999.0,-999.0,58,-99.99,,---,-99.99,VWS V14.01,2013-07-18 17:23:00,
2013-07-18 10:28:00,74.7,58.9,-100.00,North,-999,-999.0,-999.0,58,-99.99,,---,-99.99,VWS V14.01,2013-07-18 17:28:00,
2013-07-18 10:33:00,75.2,58.4,-100.00,North,-999,-999.0,-999.0,56,-99.99,,---,-99.99,VWS V14.01,2013-07-18 17:33:00,
2013-07-18 10:38:00,75.6,58.8,-100.00,North,-999,-999.0,-999.0,56,-99.99,,---,-99.99,VWS V14.01,2013-07-18 17:38:00,
2013-07-18 10:43:00,75.9,59.1,-100.00,North,-999,-999.0,-999.0,56,-99.99,,---,-99.99,VWS V14.01,2013-07-18 17:43:00,
2013-07-18 10:48:00,76.5,59.1,-100.00,North,-999,-999.0,-999.0,55,-99.99,,---,-99.99,VWS V14.01,2013-07-18 17:48:00,
2013-07-18 10:53:00,77.0,59.6,-100.00,North,-999,-999.0,-999.0,55,-99.99,,---,-99.99,VWS V14.01,2013-07-18 17:53:00,
2013-07-18 10:58:00,77.4,59.4,-100.00,North,-999,-999.0,-999.0,54,-99.99,,---,-99.99,VWS V14.01,2013-07-18 17:58:00,
2013-07-18 11:03:00,78.1,60.1,-100.00,North,-999,-999.0,-999.0,54,-99.99,,---,-99.99,VWS V14.01,2013-07-18 18:03:00,
2013-07-18 11:08:00,78.8,59.7,-100.00,North,-999,-999.0,-999.0,52,-99.99,,---,-99.99,VWS V14.01,2013-07-18 18:08:00,
2013-07-18 11:13:00,79.2,60.0,-100.00,North,-999,-999.0,-999.0,52,-99.99,,---,-99.99,VWS V14.01,2013-07-18 18:13:00,
2013-07-18 11:18:00,79.5,60.4,-100.00,North,-999,-999.0,-999.0,52,-99.99,,---,-99.99,VWS V14.01,2013-07-18 18:18:00,
2013-07-18 11:23:00,80.2,60.5,-100.00,North,-999,-999.0,-999.0,51,-99.99,,---,-99.99,VWS V14.01,2013-07-18 18:23:00,
2013-07-18 11:28:00,80.8,60.4,-100.00,North,-999,-999.0,-999.0,50,-99.99,,---,-99.99,VWS V14.01,2013-07-18 18:28:00,
2013-07-18 11:33:00,81.3,60.3,-100.00,North,-999,-999.0,-999.0,49,-99.99,,---,-99.99,VWS V14.01,2013-07-18 18:33:00,
2013-07-18 11:38:00,81.9,60.8,-100.00,North,-999,-999.0,-999.0,49,-99.99,,---,-99.99,VWS V14.01,2013-07-18 18:38:00,
2013-07-18 11:43:00,82.4,60.8,-100.00,North,-999,-999.0,-999.0,48,-99.99,,---,-99.99,VWS V14.01,2013-07-18 18:43:00,
2013-07-18 11:48:00,82.8,61.1,-100.00,North,-999,-999.0,-999.0,48,-99.99,,---,-99.99,VWS V14.01,2013-07-18 18:48:00,
2013-07-18 11:53:00,83.3,61.0,-100.00,North,-999,-999.0,-999.0,47,-99.99,,---,-99.99,VWS V14.01,2013-07-18 18:53:00,
2013-07-18 11:58:00,83.8,60.9,-100.00,North,-999,-999.0,-999.0,46,-99.99,,---,-99.99,VWS V14.01,2013-07-18 18:58:00,
2013-07-18 12:03:00,84.4,60.7,-100.00,North,-999,-999.0,-999.0,45,-99.99,,---,-99.99,VWS V14.01,2013-07-18 19:03:00,
2013-07-18 12:08:00,84.7,60.4,-100.00,North,-999,-999.0,-999.0,44,-99.99,,---,-99.99,VWS V14.01,2013-07-18 19:08:00,
2013-07-18 12:13:00,85.3,60.9,-100.00,North,-999,-999.0,-999.0,44,-99.99,,---,-99.99,VWS V14.01,2013-07-18 19:13:00,
2013-07-18 12:18:00,85.6,60.6,-100.00,North,-999,-999.0,-999.0,43,-99.99,,---,-99.99,VWS V14.01,2013-07-18 19:18:00,
2013-07-18 12:23:00,85.8,60.8,-100.00,North,-999,-999.0,-999.0,43,-99.99,,---,-99.99,VWS V14.01,2013-07-18 19:23:00,
2013-07-18 12:28:00,86.0,60.3,-100.00,North,-999,-999.0,-999.0,42,-99.99,,---,-99.99,VWS V14.01,2013-07-18 19:28:00,
2013-07-18 12:33:00,86.4,60.6,-100.00,North,-999,-999.0,-999.0,42,-99.99,,---,-99.99,VWS V14.01,2013-07-18 19:33:00,
2013-07-18 12:38:00,86.5,60.1,-100.00,North,-999,-999.0,-999.0,41,-99.99,,---,-99.99,VWS V14.01,2013-07-18 19:38:00,
2013-07-18 12:43:00,86.9,60.4,-100.00,North,-999,-999.0,-999.0,41,-99.99,,---,-99.99,VWS V14.01,2013-07-18 19:43:00,
2013-07-18 12:48:00,87.1,60.5,-100.00,North,-999,-999.0,-999.0,41,-99.99,,---,-99.99,VWS V14.01,2013-07-18 19:48:00,
2013-07-18 12:53:00,87.4,60.2,-100.00,North,-999,-999.0,-999.0,40,-99.99,,---,-99.99,VWS V14.01,2013-07-18 19:53:00,
2013-07-18 12:58:00,87.6,60.3,-100.00,North,-999,-999.0,-999.0,40,-99.99,,---,-99.99,VWS V14.01,2013-07-18 19:58:00,
2013-07-18 13:03:00,88.0,60.0,-100.00,North,-999,-999.0,-999.0,39,-99.99,,---,-99.99,VWS V14.01,2013-07-18 20:03:00,
2013-07-18 13:08:00,88.2,59.4,-100.00,North,-999,-999.0,-999.0,38,-99.99,,---,-99.99,VWS V14.01,2013-07-18 20:08:00,
2013-07-18 13:13:00,88.3,59.5,-100.00,North,-999,-999.0,-999.0,38,-99.99,,---,-99.99,VWS V14.01,2013-07-18 20:13:00,
2013-07-18 13:18:00,88.7,59.9,-100.00,North,-999,-999.0,-999.0,38,-99.99,,---,-99.99,VWS V14.01,2013-07-18 20:18:00,
2013-07-18 13:23:00,88.9,59.3,-100.00,North,-999,-999.0,-999.0,37,-99.99,,---,-99.99,VWS V14.01,2013-07-18 20:23:00,
2013-07-18 13:28:00,89.1,58.7,-100.00,North,-999,-999.0,-999.0,36,-99.99,,---,-99.99,VWS V14.01,2013-07-18 20:28:00,
2013-07-18 13:33:00,89.2,58.0,-100.00,North,-999,-999.0,-999.0,35,-99.99,,---,-99.99,VWS V14.01,2013-07-18 20:33:00,
2013-07-18 13:38:00,89.2,58.0,-100.00,North,-999,-999.0,-999.0,35,-99.99,,---,-99.99,VWS V14.01,2013-07-18 20:38:00,
2013-07-18 13:43:00,89.4,57.4,-100.00,North,-999,-999.0,-999.0,34,-99.99,,---,-99.99,VWS V14.01,2013-07-18 20:43:00,
2013-07-18 13:48:00,89.6,56.7,-100.00,North,-999,-999.0,-999.0,33,-99.99,,---,-99.99,VWS V14.01,2013-07-18 20:48:00,
2013-07-18 13:53:00,89.6,56.7,-100.00,North,-999,-999.0,-999.0,33,-99.99,,---,-99.99,VWS V14.01,2013-07-18 20:53:00,
2013-07-18 13:58:00,89.8,56.0,-100.00,North,-999,-999.0,-999.0,32,-99.99,,---,-99.99,VWS V14.01,2013-07-18 20:58:00,
2013-07-18 14:03:00,90.0,56.2,-100.00,North,-999,-999.0,-999.0,32,-99.99,,---,-99.99,VWS V14.01,2013-07-18 21:03:00,
2013-07-18 14:08:00,90.0,56.2,-100.00,North,-999,-999.0,-999.0,32,-99.99,,---,-99.99,VWS V14.01,2013-07-18 21:08:00,
2013-07-18 14:13:00,90.1,56.3,-100.00,North,-999,-999.0,-999.0,32,-99.99,,---,-99.99,VWS V14.01,2013-07-18 21:13:00,
2013-07-18 14:18:00,90.1,56.3,-100.00,North,-999,-999.0,-999.0,32,-99.99,,---,-99.99,VWS V14.01,2013-07-18 21:18:00,
2013-07-18 14:23:00,90.1,56.3,-100.00,North,-999,-999.0,-999.0,32,-99.99,,---,-99.99,VWS V14.01,2013-07-18 21:23:00,
2013-07-18 14:28:00,90.1,55.5,-100.00,North,-999,-999.0,-999.0,31,-99.99,,---,-99.99,VWS V14.01,2013-07-18 21:28:00,
2013-07-18 14:33:00,90.1,55.5,-100.00,North,-999,-999.0,-999.0,31,-99.99,,---,-99.99,VWS V14.01,2013-07-18 21:33:00,
2013-07-18 14:38:00,90.1,55.5,-100.00,North,-999,-999.0,-999.0,31,-99.99,,---,-99.99,VWS V14.01,2013-07-18 21:38:00,
2013-07-18 14:43:00,90.1,54.5,-100.00,North,-999,-999.0,-999.0,30,-99.99,,---,-99.99,VWS V14.01,2013-07-18 21:43:00,
2013-07-18 14:48:00,90.1,54.5,-100.00,North,-999,-999.0,-999.0,30,-99.99,,---,-99.99,VWS V14.01,2013-07-18 21:48:00,
2013-07-18 14:53:00,90.1,54.5,-100.00,North,-999,-999.0,-999.0,30,-99.99,,---,-99.99,VWS V14.01,2013-07-18 21:53:00,
2013-07-18 14:58:00,90.3,54.7,-100.00,North,-999,-999.0,-999.0,30,-99.99,,---,-99.99,VWS V14.01,2013-07-18 21:58:00,
2013-07-18 15:03:00,90.3,54.7,-100.00,North,-999,-999.0,-999.0,30,-99.99,,---,-99.99,VWS V14.01,2013-07-18 22:03:00,
2013-07-18 15:11:00,90.1,53.6,-100.00,North,-999,-999.0,-999.0,29,-99.99,,---,-99.99,VWS V14.01,2013-07-18 22:11:00,
2013-07-18 15:17:00,90.1,53.6,-100.00,North,-999,-999.0,-999.0,29,-99.99,,---,-99.99,VWS V14.01,2013-07-18 22:17:00,
2013-07-18 15:22:00,90.1,53.6,-100.00,North,-999,-999.0,-999.0,29,-99.99,,---,-99.99,VWS V14.01,2013-07-18 22:22:00,
2013-07-18 15:28:00,90.1,53.6,-100.00,North,-999,-999.0,-999.0,29,-99.99,,---,-99.99,VWS V14.01,2013-07-18 22:28:00,
2013-07-18 15:33:00,90.1,53.6,-100.00,North,-999,-999.0,-999.0,29,-99.99,,---,-99.99,VWS V14.01,2013-07-18 22:33:00,
2013-07-18 15:39:00,90.1,53.6,-100.00,North,-999,-999.0,-999.0,29,-99.99,,---,-99.99,VWS V14.01,2013-07-18 22:39:00,
2013-07-18 15:45:00,90.0,53.5,-100.00,North,-999,-999.0,-999.0,29,-99.99,,---,-99.99,VWS V14.01,2013-07-18 22:45:00,
2013-07-18 15:50:00,89.8,52.4,-100.00,North,-999,-999.0,-999.0,28,-99.99,,---,-99.99,VWS V14.01,2013-07-18 22:50:00,
2013-07-18 15:56:00,89.6,52.2,-100.00,North,-999,-999.0,-999.0,28,-99.99,,---,-99.99,VWS V14.01,2013-07-18 22:56:00,
2013-07-18 16:01:00,89.4,53.0,-100.00,North,-999,-999.0,-999.0,29,-99.99,,---,-99.99,VWS V14.01,2013-07-18 23:01:00,
2013-07-18 16:06:00,89.4,53.0,-100.00,North,-999,-999.0,-999.0,29,-99.99,,---,-99.99,VWS V14.01,2013-07-18 23:06:00,
2013-07-18 16:11:00,89.2,52.9,-100.00,North,-999,-999.0,-999.0,29,-99.99,,---,-99.99,VWS V14.01,2013-07-18 23:11:00,
2013-07-18 16:16:00,89.1,52.7,-100.00,North,-999,-999.0,-999.0,29,-99.99,,---,-99.99,VWS V14.01,2013-07-18 23:16:00,
2013-07-18 16:21:00,89.1,52.7,-100.00,North,-999,-999.0,-999.0,29,-99.99,,---,-99.99,VWS V14.01,2013-07-18 23:21:00,
2013-07-18 16:26:00,88.9,52.5,-100.00,North,-999,-999.0,-999.0,29,-99.99,,---,-99.99,VWS V14.01,2013-07-18 23:26:00,
2013-07-18 16:31:00,88.9,52.5,-100.00,North,-999,-999.0,-999.0,29,-99.99,,---,-99.99,VWS V14.01,2013-07-18 23:31:00,
2013-07-18 16:36:00,88.7,52.4,-100.00,North,-999,-999.0,-999.0,29,-99.99,,---,-99.99,VWS V14.01,2013-07-18 23:36:00,
2013-07-18 16:41:00,88.3,51.1,-100.00,North,-999,-999.0,-999.0,28,-99.99,,---,-99.99,VWS V14.01,2013-07-18 23:41:00,
2013-07-18 16:46:00,88.2,51.9,-100.00,North,-999,-999.0,-999.0,29,-99.99,,---,-99.99,VWS V14.01,2013-07-18 23:46:00,
2013-07-18 16:51:00,88.0,50.8,-100.00,North,-999,-999.0,-999.0,28,-99.99,,---,-99.99,VWS V14.01,2013-07-18 23:51:00,
2013-07-18 16:56:00,87.8,50.7,-100.00,North,-999,-999.0,-999.0,28,-99.99,,---,-99.99,VWS V14.01,2013-07-18 23:56:00,
2013-07-18 17:01:00,87.6,51.5,-100.00,North,-999,-999.0,-999.0,29,-99.99,,---,-99.99,VWS V14.01,2013-07-19 00:01:00,
2013-07-18 17:06:00,87.4,51.3,-100.00,North,-999,-999.0,-999.0,29,-99.99,,---,-99.99,VWS V14.01,2013-07-19 00:06:00,
2013-07-18 17:11:00,87.1,51.0,-100.00,North,-999,-999.0,-999.0,29,-99.99,,---,-99.99,VWS V14.01,2013-07-19 00:11:00,
2013-07-18 17:16:00,86.9,50.8,-100.00,North,-999,-999.0,-999.0,29,-99.99,,---,-99.99,VWS V14.01,2013-07-19 00:16:00,
2013-07-18 17:21:00,86.9,50.8,-100.00,North,-999,-999.0,-999.0,29,-99.99,,---,-99.99,VWS V14.01,2013-07-19 00:21:00,
2013-07-18 17:26:00,86.5,50.5,-100.00,North,-999,-999.0,-999.0,29,-99.99,,---,-99.99,VWS V14.01,2013-07-19 00:26:00,
2013-07-18 17:31:00,86.4,50.4,-100.00,North,-999,-999.0,-999.0,29,-99.99,,---,-99.99,VWS V14.01,2013-07-19 00:31:00,
2013-07-18 17:36:00,85.8,49.9,-100.00,North,-999,-999.0,-999.0,29,-99.99,,---,-99.99,VWS V14.01,2013-07-19 00:36:00,
2013-07-18 17:41:00,85.5,49.6,-100.00,North,-999,-999.0,-999.0,29,-99.99,,---,-99.99,VWS V14.01,2013-07-19 00:41:00,
2013-07-18 17:46:00,85.3,49.5,-100.00,North,-999,-999.0,-999.0,29,-99.99,,---,-99.99,VWS V14.01,2013-07-19 00:46:00,
2013-07-18 17:51:00,85.1,49.3,-100.00,North,-999,-999.0,-999.0,29,-99.99,,---,-99.99,VWS V14.01,2013-07-19 00:51:00,
2013-07-18 17:56:00,84.7,49.0,-100.00,North,-999,-999.0,-999.0,29,-99.99,,---,-99.99,VWS V14.01,2013-07-19 00:56:00,
2013-07-18 18:01:00,84.6,48.8,-100.00,North,-999,-999.0,-999.0,29,-99.99,,---,-99.99,VWS V14.01,2013-07-19 01:01:00,
2013-07-18 18:06:00,84.0,48.4,-100.00,North,-999,-999.0,-999.0,29,-99.99,,---,-99.99,VWS V14.01,2013-07-19 01:06:00,
2013-07-18 18:11:00,83.7,48.1,-100.00,North,-999,-999.0,-999.0,29,-99.99,,---,-99.99,VWS V14.01,2013-07-19 01:11:00,
2013-07-18 18:16:00,83.3,48.7,-100.00,North,-999,-999.0,-999.0,30,-99.99,,---,-99.99,VWS V14.01,2013-07-19 01:16:00,
2013-07-18 18:21:00,83.1,48.5,-100.00,North,-999,-999.0,-999.0,30,-99.99,,---,-99.99,VWS V14.01,2013-07-19 01:21:00,
2013-07-18 18:26:00,82.8,48.2,-100.00,North,-999,-999.0,-999.0,30,-99.99,,---,-99.99,VWS V14.01,2013-07-19 01:26:00,
2013-07-18 18:31:00,82.2,47.7,-100.00,North,-999,-999.0,-999.0,30,-99.99,,---,-99.99,VWS V14.01,2013-07-19 01:31:00,
2013-07-18 18:36:00,81.9,47.4,-100.00,North,-999,-999.0,-999.0,30,-99.99,,---,-99.99,VWS V14.01,2013-07-19 01:36:00,
2013-07-18 18:41:00,81.7,47.3,-100.00,North,-999,-999.0,-999.0,30,-99.99,,---,-99.99,VWS V14.01,2013-07-19 01:41:00,
2013-07-18 18:46:00,81.1,46.8,-100.00,North,-999,-999.0,-999.0,30,-99.99,,---,-99.99,VWS V14.01,2013-07-19 01:46:00,
2013-07-18 18:51:00,80.6,47.2,-100.00,North,-999,-999.0,-999.0,31,-99.99,,---,-99.99,VWS V14.01,2013-07-19 01:51:00,
2013-07-18 18:56:00,80.2,46.9,-100.00,North,-999,-999.0,-999.0,31,-99.99,,---,-99.99,VWS V14.01,2013-07-19 01:56:00,
2013-07-18 19:01:00,80.1,46.7,-100.00,North,-999,-999.0,-999.0,31,-99.99,,---,-99.99,VWS V14.01,2013-07-19 02:01:00,
2013-07-18 19:06:00,79.5,46.3,-100.00,North,-999,-999.0,-999.0,31,-99.99,,---,-99.99,VWS V14.01,2013-07-19 02:06:00,
2013-07-18 19:11:00,79.2,46.0,-100.00,North,-999,-999.0,-999.0,31,-99.99,,---,-99.99,VWS V14.01,2013-07-19 02:11:00,
2013-07-18 19:16:00,78.6,46.3,-100.00,North,-999,-999.0,-999.0,32,-99.99,,---,-99.99,VWS V14.01,2013-07-19 02:16:00,
2013-07-18 19:21:00,78.3,46.0,-100.00,North,-999,-999.0,-999.0,32,-99.99,,---,-99.99,VWS V14.01,2013-07-19 02:21:00,
2013-07-18 19:26:00,78.1,45.8,-100.00,North,-999,-999.0,-999.0,32,-99.99,,---,-99.99,VWS V14.01,2013-07-19 02:26:00,
2013-07-18 19:31:00,77.9,45.7,-100.00,North,-999,-999.0,-999.0,32,-99.99,,---,-99.99,VWS V14.01,2013-07-19 02:31:00,
2013-07-18 19:36:00,77.5,46.2,-100.00,North,-999,-999.0,-999.0,33,-99.99,,---,-99.99,VWS V14.01,2013-07-19 02:36:00,
2013-07-18 19:41:00,77.4,46.0,-100.00,North,-999,-999.0,-999.0,33,-99.99,,---,-99.99,VWS V14.01,2013-07-19 02:41:00,
2013-07-18 19:46:00,77.0,45.7,-100.00,North,-999,-999.0,-999.0,33,-99.99,,---,-99.99,VWS V14.01,2013-07-19 02:46:00,
2013-07-18 19:51:00,76.6,46.2,-100.00,North,-999,-999.0,-999.0,34,-99.99,,---,-99.99,VWS V14.01,2013-07-19 02:51:00,
2013-07-18 19:56:00,76.1,45.7,-100.00,North,-999,-999.0,-999.0,34,-99.99,,---,-99.99,VWS V14.01,2013-07-19 02:56:00,
2013-07-18 20:01:00,75.7,45.4,-100.00,North,-999,-999.0,-999.0,34,-99.99,,---,-99.99,VWS V14.01,2013-07-19 03:01:00,
2013-07-18 20:06:00,75.2,44.9,-100.00,North,-999,-999.0,-999.0,34,-99.99,,---,-99.99,VWS V14.01,2013-07-19 03:06:00,
2013-07-18 20:11:00,74.8,45.4,-100.00,North,-999,-999.0,-999.0,35,-99.99,,---,-99.99,VWS V14.01,2013-07-19 03:11:00,
2013-07-18 20:16:00,74.5,45.1,-100.00,North,-999,-999.0,-999.0,35,-99.99,,---,-99.99,VWS V14.01,2013-07-19 03:16:00,
2013-07-18 20:22:00,73.9,44.6,-100.00,North,-999,-999.0,-999.0,35,-99.99,,---,-99.99,VWS V14.01,2013-07-19 03:22:00,
2013-07-18 20:27:00,73.6,45.0,-100.00,North,-999,-999.0,-999.0,36,-99.99,,---,-99.99,VWS V14.01,2013-07-19 03:27:00,
2013-07-18 20:33:00,73.4,44.8,-100.00,North,-999,-999.0,-999.0,36,-99.99,,---,-99.99,VWS V14.01,2013-07-19 03:33:00,
2013-07-18 20:38:00,73.0,44.5,-100.00,North,-999,-999.0,-999.0,36,-99.99,,---,-99.99,VWS V14.01,2013-07-19 03:38:00,
2013-07-18 20:44:00,72.9,45.1,-100.00,North,-999,-999.0,-999.0,37,-99.99,,---,-99.99,VWS V14.01,2013-07-19 03:44:00,
2013-07-18 20:50:00,72.5,44.8,-100.00,North,-999,-999.0,-999.0,37,-99.99,,---,-99.99,VWS V14.01,2013-07-19 03:50:00,
2013-07-18 20:55:00,72.3,44.6,-100.00,North,-999,-999.0,-999.0,37,-99.99,,---,-99.99,VWS V14.01,2013-07-19 03:55:00,
2013-07-18 21:00:00,72.1,44.5,-100.00,North,-999,-999.0,-999.0,37,-99.99,,---,-99.99,VWS V14.01,2013-07-19 04:00:00,
2013-07-18 21:01:00,72.1,44.5,-100.00,North,-999,-999.0,-999.0,37,-99.99,,---,-99.99,VWS V14.01,2013-07-19 04:01:00,
2013-07-18 21:11:00,72.1,45.2,-100.00,North,-999,-999.0,-999.0,38,-99.99,,---,-99.99,VWS V14.01,2013-07-19 04:11:00,
2013-07-18 21:14:00,72.0,45.0,-100.00,North,-999,-999.0,-999.0,38,-99.99,,---,-99.99,VWS V14.01,2013-07-19 04:14:00,
2013-07-18 21:16:00,72.0,45.0,-100.00,North,-999,-999.0,-999.0,38,-99.99,,---,-99.99,VWS V14.01,2013-07-19 04:16:00,
2013-07-18 21:21:00,71.6,44.7,-100.00,North,-999,-999.0,-999.0,38,-99.99,,---,-99.99,VWS V14.01,2013-07-19 04:21:00,
2013-07-18 21:26:00,71.4,45.2,-100.00,North,-999,-999.0,-999.0,39,-99.99,,---,-99.99,VWS V14.01,2013-07-19 04:26:00,
2013-07-18 21:31:00,70.9,44.7,-100.00,North,-999,-999.0,-999.0,39,-99.99,,---,-99.99,VWS V14.01,2013-07-19 04:31:00,
2013-07-18 21:36:00,70.7,45.2,-100.00,North,-999,-999.0,-999.0,40,-99.99,,---,-99.99,VWS V14.01,2013-07-19 04:36:00,
2013-07-18 21:41:00,70.5,45.1,-100.00,North,-999,-999.0,-999.0,40,-99.99,,---,-99.99,VWS V14.01,2013-07-19 04:41:00,
2013-07-18 21:46:00,70.3,44.9,-100.00,North,-999,-999.0,-999.0,40,-99.99,,---,-99.99,VWS V14.01,2013-07-19 04:46:00,
2013-07-18 21:51:00,70.2,45.4,-100.00,North,-999,-999.0,-999.0,41,-99.99,,---,-99.99,VWS V14.01,2013-07-19 04:51:00,
2013-07-18 21:56:00,70.0,45.2,-100.00,North,-999,-999.0,-999.0,41,-99.99,,---,-99.99,VWS V14.01,2013-07-19 04:56:00,
2013-07-18 22:01:00,69.8,45.1,-100.00,North,-999,-999.0,-999.0,41,-99.99,,---,-99.99,VWS V14.01,2013-07-19 05:01:00,
2013-07-18 22:06:00,69.6,45.5,-100.00,North,-999,-999.0,-999.0,42,-99.99,,---,-99.99,VWS V14.01,2013-07-19 05:06:00,
2013-07-18 22:11:00,69.4,45.4,-100.00,North,-999,-999.0,-999.0,42,-99.99,,---,-99.99,VWS V14.01,2013-07-19 05:11:00,
2013-07-18 22:16:00,69.3,45.2,-100.00,North,-999,-999.0,-999.0,42,-99.99,,---,-99.99,VWS V14.01,2013-07-19 05:16:00,
2013-07-18 22:21:00,69.1,45.0,-100.00,North,-999,-999.0,-999.0,42,-99.99,,---,-99.99,VWS V14.01,2013-07-19 05:21:00,
2013-07-18 22:26:00,68.9,44.9,-100.00,North,-999,-999.0,-999.0,42,-99.99,,---,-99.99,VWS V14.01,2013-07-19 05:26:00,
2013-07-18 22:31:00,68.9,45.5,-100.00,North,-999,-999.0,-999.0,43,-99.99,,---,-99.99,VWS V14.01,2013-07-19 05:31:00,
2013-07-18 22:36:00,68.7,45.3,-100.00,North,-999,-999.0,-999.0,43,-99.99,,---,-99.99,VWS V14.01,2013-07-19 05:36:00,
2013-07-18 22:41:00,68.7,45.3,-100.00,North,-999,-999.0,-999.0,43,-99.99,,---,-99.99,VWS V14.01,2013-07-19 05:41:00,
2013-07-18 22:46:00,68.5,45.2,-100.00,North,-999,-999.0,-999.0,43,-99.99,,---,-99.99,VWS V14.01,2013-07-19 05:46:00,
2013-07-18 22:51:00,68.5,45.2,-100.00,North,-999,-999.0,-999.0,43,-99.99,,---,-99.99,VWS V14.01,2013-07-19 05:51:00,
2013-07-18 22:56:00,68.4,45.0,-100.00,North,-999,-999.0,-999.0,43,-99.99,,---,-99.99,VWS V14.01,2013-07-19 05:56:00,
2013-07-18 23:01:00,68.5,45.2,-100.00,North,-999,-999.0,-999.0,43,-99.99,,---,-99.99,VWS V14.01,2013-07-19 06:01:00,
2013-07-18 23:06:00,68.5,45.2,-100.00,North,-999,-999.0,-999.0,43,-99.99,,---,-99.99,VWS V14.01,2013-07-19 06:06:00,
2013-07-18 23:11:00,68.4,45.0,-100.00,North,-999,-999.0,-999.0,43,-99.99,,---,-99.99,VWS V14.01,2013-07-19 06:11:00,
2013-07-18 23:16:00,68.0,44.7,-100.00,North,-999,-999.0,-999.0,43,-99.99,,---,-99.99,VWS V14.01,2013-07-19 06:16:00,
2013-07-18 23:21:00,67.8,44.5,-100.00,North,-999,-999.0,-999.0,43,-99.99,,---,-99.99,VWS V14.01,2013-07-19 06:21:00,
2013-07-18 23:26:00,67.6,44.4,-100.00,North,-999,-999.0,-999.0,43,-99.99,,---,-99.99,VWS V14.01,2013-07-19 06:26:00,
2013-07-18 23:31:00,67.5,44.2,-100.00,North,-999,-999.0,-999.0,43,-99.99,,---,-99.99,VWS V14.01,2013-07-19 06:31:00,
2013-07-18 23:36:00,67.5,44.2,-100.00,North,-999,-999.0,-999.0,43,-99.99,,---,-99.99,VWS V14.01,2013-07-19 06:36:00,
2013-07-18 23:41:00,67.3,44.7,-100.00,North,-999,-999.0,-999.0,44,-99.99,,---,-99.99,VWS V14.01,2013-07-19 06:41:00,
2013-07-18 23:46:00,67.3,44.7,-100.00,North,-999,-999.0,-999.0,44,-99.99,,---,-99.99,VWS V14.01,2013-07-19 06:46:00,
2013-07-18 23:51:00,67.1,44.5,-100.00,North,-999,-999.0,-999.0,44,-99.99,,---,-99.99,VWS V14.01,2013-07-19 06:51:00,
2013-07-18 23:56:00,67.1,44.5,-100.00,North,-999,-999.0,-999.0,44,-99.99,,---,-99.99,VWS V14.01,2013-07-19 06:56:00,